Location: Karlsruhe
(49.0131°N, 8.3874°E)
Time: 14:53:17
(UTC+02:00)

ISS - Pass Details

Date: 17 May 2021
Orbit: 419 x 422 km, 51.6° (Epoch: 25 June)

Event Time Altitude Azimuth Distance (km) Brightness Sun altitude
Rises 23:31:03 0° 262° (W) 2,368 0.3 -17.1°
Reaches altitude 10° 23:33:10 10° 266° (W) 1,505 -0.7 -17.2°
Maximum altitude 23:36:31 62° 349° (NNW) 479 -3.3 -17.5°
Drops below altitude 10° 23:39:53 10° 71° (ENE) 1,510 -1.0 -17.7°
Enters shadow 23:41:57 - 74° (ENE) 2,355 0.0 -17.9°
